User: anonymous   Login
Location: ScottNC Observatory
(36.0892°N, 80.4832°W)
Time: 18:50:37
(UTC-05:00)
Language:

FO-29 - Orbit

View from above orbital plane
View from above orbital plane
View from above satellite
View from above satellite

Ground track
Ground track

The orbit data is extracted from the following two-line orbital elements,

1 24278U 96046B   19315.81108208 -.00000029 +00000-0 +79290-5 0  9999
2 24278 098.5600 089.5552 0349766 221.1056 136.3249 13.53094765147316
Epoch (UTC): 11 November 2019 19:27:57
Eccentricity: 0.0349766
inclination: 98.5600°
perigee height: 801 km
apogee height: 1321 km
right ascension of ascending node: 89.5552°
argument of perigee: 221.1056°
revolutions per day: 13.53094765
mean anomaly at epoch: 136.3249°
orbit number at epoch: 14731

The dashed part of the orbit path shows where the satellite is in the earth's shadow,  

DLR